[[{"header":{"parameterUnit":"m.s-1","parameterCategory":2,"la1":30.2991,"la2":30.254,"lo1":-89.0895,"lo2":-89.0444,"dy":0.0017,"dx":0.0017,"nx":28,"ny":28,"refTime":"2026-01-07T03:00:00:Z","depth":"0","parameterNumber":2,"parameterNumberName":"U-component_of_CURRENTS"},"data":[0,0,0,0,0,0,0,0,0,0,0,0,0,0,0,0,0,0,0,0,0,0,0,0,0,0,0,0,0,0,0,0,0,0,0,0,0,0,0,0,0,0,0,0,0,0,0,0,0,0,0,0,0,0,0,0,0,0,0.1768,0.1768,0,0.1794,0.1794,0.1794,0.1809,0.1809,0.1809,0.1809,0.1844,0.1845,0.1846,0,0,0,0,0,0,0,0,0,0,0,0,0,0.1739,0.1739,0.1768,0.1768,0.1769,0.1794,0.1794,0.1794,0.1809,0.1809,0.1809,0.1809,0.1844,0.1845,0.1846,0,0,0,0,0,0,0,0,0,0,0,0,0,0.1756,0.1739,0.1768,0.178,0.1781,0.1794,0.1794,0.1794,0.1809,0.1809,0.1809,0.181,0.1843,0.1845,0.1846,0.1848,0,0,0.1849,0.185,0,0,0,0,0,0,0,0,0.1755,0.1757,0.1778,0.1779,0.1781,0.1799,0.1797,0.1813,0.1809,0.1797,0.1809,0.181,0.183,0.1833,0.1835,0.185,0.1852,0.1849,0.185,0.1851,0.1851,0,0,0,0,0,0,0,0.1754,0.1756,0.1777,0.1778,0.178,0.1787,0.1789,0.18,0.1812,0.1798,0.18,0.1804,0.1831,0.1834,0.1836,0.1852,0.1849,0.185,0.1851,0.1852,0.188,0.188,0,0,0,0,0,0,0.1752,0.1755,0.1776,0.1778,0.1769,0.1787,0.179,0.1792,0.1811,0.1815,0.1804,0.1805,0.1832,0.1835,0.1838,0.1855,0.1851,0.1852,0.1852,0.188,0.188,0.188,0,0,0,0,0,0,0.1751,0.1754,0.1775,0.1768,0.1771,0.1787,0.179,0.1793,0.1796,0.1816,0.1819,0.1805,0.1832,0.1836,0.185,0.1856,0.1852,0.1853,0.188,0.188,0.188,0.1881,0,0,0,0,0,0,0.175,0.1753,0.1752,0.1768,0.1772,0.1779,0.179,0.1793,0.1799,0.1801,0.1818,0.1821,0.1833,0.1848,0.1851,0.1857,0.1854,0.188,0.188,0.188,0.188,0.1881,0.1881,0,0,0,0,0,0.1749,0.1744,0.1752,0.1755,0.1771,0.1779,0.1782,0.1793,0.1799,0.1798,0.1814,0.1821,0.185,0.1849,0.1852,0.1859,0.188,0.188,0.188,0.188,0.1881,0.1881,0,0,0,0,0,0,0.1727,0.1746,0.1755,0.1755,0.1767,0.1782,0.178,0.1792,0.1803,0.1803,0.1822,0.1827,0.1842,0.1848,0.1845,0.1867,0.1866,0.1867,0.1865,0.1865,0.1865,0.1853,0.1855,0,0,0,0,0,0.1724,0.1725,0.1745,0.1744,0.1748,0.1765,0.1769,0.1778,0.1792,0.1796,0.1811,0.1826,0.1845,0.1852,0.1865,0.1876,0.1891,0.1881,0.1882,0.1882,0.1874,0.1907,0.191,0.1881,0.1881,0.1881,0,0,0.1713,0.1724,0.1724,0.1739,0.1747,0.1752,0.1767,0.1771,0.1777,0.1798,0.1806,0.1827,0.1848,0.1863,0.1869,0.1868,0.1899,0.1882,0.1882,0.1874,0.1908,0.1911,0.1914,0.1881,0.1881,0.1881,0,0,0.1694,0.1703,0.17,0.171,0.1725,0.1736,0.1738,0.1754,0.1763,0.1774,0.1798,0.1821,0.1837,0.1861,0.1874,0.1881,0.19,0.1885,0.1876,0.1909,0.1912,0.1915,0.1945,0.1951,0.1884,0.1884,0.1884,0,0.1679,0.1682,0.1699,0.1702,0.1706,0.1729,0.1727,0.174,0.176,0.1769,0.1772,0.1816,0.1836,0.1869,0.1873,0.1882,0.1902,0.1876,0.191,0.1913,0.1916,0.1946,0.1952,0.1884,0.1884,0.1884,0.1884,0,0.1664,0.1665,0.1661,0.1674,0.1682,0.168,0.1705,0.1713,0.1726,0.1744,0.1772,0.1804,0.183,0.1846,0.1861,0.1894,0.1903,0.1909,0.1911,0.1919,0.195,0.1957,0.1884,0.1884,0.1884,0.1884,0,0,0.1623,0.1646,0.1643,0.1644,0.1666,0.1667,0.168,0.1699,0.1708,0.1733,0.1749,0.1791,0.1813,0.1829,0.1861,0.189,0.1934,0.1905,0.1906,0.1936,0.2008,0.2014,0.2021,0.195,0.195,0.1951,0.2026,0,0.1602,0.1598,0.162,0.161,0.1607,0.1636,0.1646,0.1669,0.1691,0.1713,0.1757,0.1783,0.1807,0.1825,0.1859,0.192,0.1949,0.1913,0.1994,0.1996,0.2002,0.2028,0.2058,0.2127,0.2032,0.2033,0.2034,0,0.1573,0.1576,0.1566,0.1578,0.1579,0.1582,0.16,0.1614,0.1659,0.168,0.1719,0.1755,0.1813,0.1824,0.1924,0.1901,0.1948,0.1989,0.1993,0.1999,0.2013,0.2102,0.2142,0.2061,0.2043,0.2042,0.2042,0,0.1523,0.1532,0.1521,0.1524,0.1547,0.1548,0.1562,0.16,0.1614,0.1662,0.168,0.1749,0.1788,0.1857,0.1946,0.1939,0.205,0.2053,0.2099,0.2101,0.2141,0.2144,0.2112,0.2109,0.2109,0.2109,0.2109,0,0.1482,0.1467,0.1496,0.1486,0.1476,0.1507,0.1506,0.1534,0.1577,0.1596,0.1659,0.1694,0.1797,0.1874,0.1946,0.2048,0.2055,0.2102,0.2122,0.2142,0.2144,0.2086,0.2014,0.2112,0.2111,0.211,0.211,0,0.1417,0.1437,0.1421,0.1442,0.145,0.1438,0.1469,0.1473,0.1523,0.1552,0.1568,0.1664,0.177,0.1873,0.1997,0.205,0.2089,0.2172,0.2186,0.2206,0.2162,0.209,0.1971,0.1921,0.2238,0.2239,0.224,0,0.1377,0.1366,0.138,0.1371,0.1377,0.1377,0.1382,0.1435,0.1451,0.1535,0.1549,0.1657,0.1737,0.1925,0.206,0.2198,0.2098,0.2272,0.2257,0.2162,0.2097,0.1953,0.1908,0.232,0.2321,0.2322,0.2323,0,0.13,0.1311,0.1306,0.1296,0.1293,0.1298,0.1316,0.1331,0.1398,0.1444,0.1523,0.1596,0.1791,0.1949,0.2121,0.2222,0.2154,0.2293,0.2202,0.2158,0.1992,0.1954,0.2256,0.2331,0.233,0.233,0.2329,0.2329,0.1239,0.1224,0.1226,0.121,0.121,0.1219,0.1218,0.1264,0.1308,0.1382,0.1473,0.1583,0.1817,0.2081,0.2172,0.2307,0.2188,0.2292,0.2216,0.208,0.2004,0.2311,0.2396,0.2395,0.2395,0.2395,0.2394,0,0.1161,0.1156,0.1141,0.1129,0.1107,0.1138,0.1169,0.1179,0.1227,0.133,0.141,0.1644,0.1844,0.2047,0.2263,0.2233,0.2174,0.2171,0.199,0.1956,0.2272,0.225,0.2297,0.2297,0.2297,0.2297,0.2298,0.2298,0.1114,0.1084,0.1087,0.1034,0.1026,0.1011,0.1026,0.107,0.1141,0.1265,0.1386,0.1505,0.1727,0.1944,0.2055,0.2075,0.1889,0.1832,0.1723,0.1971,0.1976,0.1981,0.1944,0.1927,0.1926,0.1416,0.1412,0.1409]},{"header":{"parameterUnit":"m.s-1","parameterCategory":2,"la1":30.2991,"la2":30.254,"lo1":-89.0895,"lo2":-89.0444,"dy":0.0017,"dx":0.0017,"nx":28,"ny":28,"refTime":"2026-01-07T03:00:00:Z","depth":"0","parameterNumber":3,"parameterNumberName":"V-component_of_CURRENTS"},"data":[0,0,0,0,0,0,0,0,0,0,0,0,0,0,0,0,0,0,0,0,0,0,0,0,0,0,0,0,0,0,0,0,0,0,0,0,0,0,0,0,0,0,0,0,0,0,0,0,0,0,0,0,0,0,0,0,0,0,-0.0265,-0.0265,0,-0.0282,-0.0282,-0.0282,-0.0298,-0.0298,-0.0298,-0.0298,-0.034,-0.0341,-0.0342,0,0,0,0,0,0,0,0,0,0,0,0,0,-0.024,-0.024,-0.0265,-0.0265,-0.0265,-0.0282,-0.0282,-0.0282,-0.0298,-0.0298,-0.0298,-0.0299,-0.034,-0.0341,-0.0342,0,0,0,0,0,0,0,0,0,0,0,0,0,-0.0253,-0.0241,-0.0265,-0.0275,-0.0276,-0.0282,-0.0282,-0.0282,-0.0298,-0.0298,-0.0298,-0.0299,-0.0339,-0.034,-0.0342,-0.0343,0,0,-0.0346,-0.0346,0,0,0,0,0,0,0,0,-0.0252,-0.0254,-0.0273,-0.0275,-0.0276,-0.0289,-0.0289,-0.0304,-0.0298,-0.0289,-0.0298,-0.0299,-0.0325,-0.0328,-0.0329,-0.0345,-0.0347,-0.0346,-0.0347,-0.0347,-0.0348,0,0,0,0,0,0,0,-0.0251,-0.0253,-0.0271,-0.0274,-0.0275,-0.0278,-0.028,-0.0292,-0.0305,-0.029,-0.0291,-0.0294,-0.0326,-0.0328,-0.033,-0.0347,-0.0346,-0.0347,-0.0348,-0.0348,-0.0353,-0.0352,0,0,0,0,0,0,-0.025,-0.0252,-0.027,-0.0271,-0.0265,-0.0278,-0.028,-0.0284,-0.0304,-0.0308,-0.0294,-0.0295,-0.0325,-0.0328,-0.0332,-0.0313,-0.0347,-0.0349,-0.0349,-0.0354,-0.0353,-0.0352,0,0,0,0,0,0,-0.025,-0.0252,-0.027,-0.0263,-0.0265,-0.0278,-0.0282,-0.0284,-0.0286,-0.0307,-0.0311,-0.0294,-0.0325,-0.033,-0.0335,-0.0316,-0.0349,-0.035,-0.0355,-0.0353,-0.0353,-0.0291,0,0,0,0,0,0,-0.0249,-0.0251,-0.0251,-0.0263,-0.0266,-0.0267,-0.0281,-0.0284,-0.0288,-0.0289,-0.0308,-0.0312,-0.0326,-0.0333,-0.0337,-0.0319,-0.0351,-0.0355,-0.0354,-0.0353,-0.0294,-0.0288,-0.0283,0,0,0,0,0,-0.0248,-0.0246,-0.0251,-0.0253,-0.0265,-0.0267,-0.0268,-0.0279,-0.0287,-0.0283,-0.0295,-0.0312,-0.0328,-0.0334,-0.0338,-0.032,-0.0356,-0.0354,-0.0353,-0.0296,-0.0289,-0.0283,0,0,0,0,0,0,-0.0235,-0.0247,-0.0253,-0.0255,-0.0259,-0.027,-0.0268,-0.0276,-0.0282,-0.0285,-0.0306,-0.031,-0.0306,-0.0324,-0.033,-0.0318,-0.0344,-0.0343,-0.0299,-0.0293,-0.0287,-0.0276,-0.0353,0,0,0,0,0,-0.0232,-0.0232,-0.0244,-0.0243,-0.0246,-0.0257,-0.0259,-0.0264,-0.0273,-0.0276,-0.0288,-0.03,-0.0303,-0.0307,-0.0315,-0.0311,-0.0329,-0.0302,-0.0297,-0.0292,-0.0286,-0.0297,-0.0291,-0.0347,-0.0347,-0.0347,0,0,-0.0225,-0.0233,-0.0233,-0.024,-0.0245,-0.0237,-0.0258,-0.0258,-0.0246,-0.028,-0.0269,-0.0283,-0.0298,-0.0289,-0.0289,-0.0301,-0.0285,-0.029,-0.0286,-0.0282,-0.0294,-0.0289,-0.0284,-0.0346,-0.0346,-0.0347,0,0,-0.021,-0.0221,-0.0214,-0.0214,-0.022,-0.0223,-0.0222,-0.023,-0.0229,-0.0224,-0.0239,-0.024,-0.0252,-0.0252,-0.0255,-0.0226,-0.0256,-0.0231,-0.0193,-0.0203,-0.0199,-0.0195,-0.0209,-0.0207,-0.0227,-0.0227,-0.0227,0,-0.0201,-0.0196,-0.0211,-0.0203,-0.0197,-0.0214,-0.0198,-0.0197,-0.0203,-0.0197,-0.0213,-0.0216,-0.0231,-0.0212,-0.0199,-0.0212,-0.0228,-0.0215,-0.0195,-0.0192,-0.0189,-0.0205,-0.0204,-0.0224,-0.0224,-0.0225,-0.0225,0,-0.0181,-0.0173,-0.0168,-0.016,-0.0155,-0.0145,-0.0145,-0.0138,-0.0143,-0.0144,-0.0133,-0.0151,-0.0155,-0.0154,-0.0167,-0.0147,-0.0168,-0.0187,-0.021,-0.018,-0.0199,-0.0198,-0.022,-0.0221,-0.0222,-0.0222,0,0,-0.0165,-0.0155,-0.0151,-0.0138,-0.0131,-0.0122,-0.0099,-0.0083,-0.0067,-0.0075,-0.0055,-0.0057,-0.0075,-0.008,-0.0097,-0.0099,-0.0091,-0.013,-0.0132,-0.0141,-0.0118,-0.0129,-0.013,-0.0109,-0.0109,-0.0108,-0.0138,0,-0.014,-0.0116,-0.0114,-0.0078,-0.0063,-0.0063,-0.0037,-0.0025,-0.0023,-0.001,-0.0023,-0.0018,-0.0044,-0.0048,-0.0052,-0.0082,-0.0088,-0.0082,-0.0149,-0.0151,-0.0162,-0.0129,-0.0095,-0.0118,-0.0138,-0.0138,-0.0138,0,-0.0116,-0.0102,-0.0069,-0.0035,-0.0028,-0.0008,0.0026,0.0045,0.0059,0.0057,0.0057,0.0038,0.0038,0.0004,-0.0028,-0.0025,-0.0064,-0.009,-0.0092,-0.0123,-0.0161,-0.0153,-0.0117,-0.0148,-0.0138,-0.0138,-0.0138,0,-0.0097,-0.0066,-0.0037,-0.0027,0.0004,0.0025,0.0043,0.0065,0.0084,0.0093,0.01,0.009,0.0079,0.0039,-0.0015,-0.0025,-0.0056,-0.0082,-0.0128,-0.013,-0.0124,-0.0126,-0.0122,-0.0106,-0.0106,-0.0106,-0.0106,0,-0.007,-0.0044,-0.0027,-0.0011,0.0031,0.0044,0.0086,0.01,0.0122,0.0147,0.0128,0.014,0.0087,0.006,0.0004,-0.0055,-0.0047,-0.0112,-0.0133,-0.0102,-0.0102,-0.0149,-0.0197,-0.0107,-0.0107,-0.0107,-0.0107,0,-0.0049,-0.004,-0.0005,0.0027,0.0039,0.0067,0.0108,0.0137,0.0149,0.0179,0.018,0.0177,0.0144,0.0089,0.0026,-0.0031,-0.0112,-0.0115,-0.0076,-0.0091,-0.0166,-0.0214,-0.026,-0.0282,-0.0169,-0.0169,-0.017,0,-0.0035,-0.0018,0.0017,0.0038,0.0054,0.0092,0.012,0.0146,0.0171,0.0202,0.0217,0.0202,0.0204,0.0115,0.0021,-0.007,-0.0121,-0.0113,-0.0123,-0.0154,-0.0222,-0.0247,-0.0264,-0.0093,-0.0093,-0.0093,-0.0093,0,-0.0006,0.0002,0.0027,0.0064,0.0095,0.0136,0.0173,0.0198,0.0227,0.0255,0.0284,0.0293,0.0215,0.0165,0.0046,-0.003,-0.0134,-0.0111,-0.0147,-0.0162,-0.0184,-0.0221,-0.0098,-0.009,-0.009,-0.009,-0.0091,-0.0091,0.0013,0.0035,0.0061,0.0099,0.0134,0.0182,0.0222,0.026,0.031,0.0375,0.0357,0.0413,0.0328,0.0181,0.0051,-0.0109,-0.0141,-0.0141,-0.0196,-0.0217,-0.0233,-0.0107,-0.0123,-0.0123,-0.0123,-0.0124,-0.0124,0,0.0037,0.0061,0.0097,0.0145,0.0188,0.0202,0.0263,0.0312,0.0378,0.0453,0.0495,0.0542,0.0423,0.0267,0.0045,-0.0124,-0.0197,-0.0213,-0.0226,-0.0241,-0.012,-0.0109,-0.0116,-0.0116,-0.0116,-0.0116,-0.0116,-0.0116,0.0055,0.0089,0.0108,0.0183,0.0219,0.0289,0.033,0.0403,0.0476,0.0617,0.071,0.0764,0.0704,0.027,-0.0037,-0.0155,-0.0274,-0.0324,-0.0389,-0.0289,-0.0286,-0.0282,-0.0278,-0.0321,-0.0322,-0.0451,-0.0452,-0.0454]}],[{"header":{"parameterUnit":"m.s-1","parameterCategory":2,"la1":30.2991,"la2":30.254,"lo1":-89.0895,"lo2":-89.0444,"dy":0.0017,"dx":0.0017,"nx":28,"ny":28,"refTime":"2026-01-07T03:00:00:Z","depth":"2","parameterNumber":2,"parameterNumberName":"U-component_of_CURRENTS"},"data":[0,0,0,0,0,0,0,0,0,0,0,0,0,0,0,0,0,0,0,0,0,0,0,0,0,0,0,0,0,0,0,0,0,0,0,0,0,0,0,0,0,0,0,0,0,0,0,0,0,0,0,0,0,0,0,0,0,0,0.0856,0.0856,0,0.0857,0.0857,0.0857,0.0851,0.0851,0.0851,0.0851,0.0854,0.0854,0.0854,0,0,0,0,0,0,0,0,0,0,0,0,0,0.0851,0.0851,0.0856,0.0856,0.0856,0.0857,0.0857,0.0857,0.0851,0.0851,0.0851,0.0851,0.0854,0.0854,0.0854,0,0,0,0,0,0,0,0,0,0,0,0,0,0.0852,0.0851,0.0856,0.0854,0.0854,0.0857,0.0857,0.0857,0.0851,0.0851,0.0851,0.0851,0.0854,0.0854,0.0854,0.0857,0,0,0.0855,0.0855,0,0,0,0,0,0,0,0,0.0852,0.0852,0.0854,0.0854,0.0854,0.0855,0.0857,0.0858,0.0851,0.0851,0.0851,0.0851,0.0855,0.0855,0.0854,0.0857,0.0857,0.0855,0.0855,0.0855,0.0855,0,0,0,0,0,0,0,0.0852,0.0852,0.0855,0.0855,0.0855,0.0854,0.0854,0.0857,0.0853,0.0851,0.0851,0.0853,0.0855,0.0854,0.0854,0.0858,0.0855,0.0855,0.0855,0.0855,0.0913,0.0914,0,0,0,0,0,0,0.0854,0.0852,0.0855,0.0856,0.0854,0.0855,0.0854,0.0854,0.0853,0.0853,0.0853,0.0853,0.0854,0.0854,0.0854,0.0901,0.0855,0.0855,0.0855,0.0912,0.0913,0.0915,0,0,0,0,0,0,0.0854,0.0854,0.0855,0.0855,0.0855,0.0855,0.0854,0.0854,0.0865,0.0854,0.0854,0.0866,0.0853,0.0854,0.0874,0.0899,0.0855,0.0855,0.091,0.0912,0.0914,0.0967,0,0,0,0,0,0,0.0854,0.0854,0.0861,0.0855,0.0855,0.0867,0.0855,0.0854,0.0866,0.0866,0.0865,0.0864,0.0853,0.0874,0.0874,0.0899,0.0855,0.0908,0.0911,0.0913,0.0963,0.0971,0.0977,0,0,0,0,0,0.0853,0.086,0.0861,0.0862,0.0862,0.0867,0.0868,0.0866,0.0867,0.0875,0.088,0.0865,0.0891,0.0875,0.0875,0.09,0.0907,0.091,0.0913,0.096,0.0969,0.0977,0,0,0,0,0,0,0.0863,0.086,0.0861,0.0867,0.0873,0.0867,0.0875,0.0876,0.0887,0.089,0.0881,0.0881,0.091,0.09,0.0882,0.0926,0.0898,0.0901,0.0934,0.0942,0.0948,0.095,0.0856,0,0,0,0,0,0.0868,0.0872,0.0872,0.0879,0.0883,0.0884,0.0888,0.0889,0.0894,0.0898,0.09,0.0907,0.0921,0.0927,0.0934,0.0955,0.0971,0.0973,0.098,0.0985,0.0989,0.1045,0.1057,0.0925,0.0925,0.0925,0,0,0.0874,0.0874,0.0876,0.0882,0.0885,0.0895,0.0886,0.0898,0.0911,0.0897,0.0921,0.0931,0.0933,0.096,0.0972,0.0955,0.1035,0.0989,0.0994,0.0994,0.105,0.1063,0.1074,0.0927,0.0927,0.0927,0,0,0.0883,0.0888,0.0894,0.0901,0.0911,0.0912,0.092,0.0926,0.0935,0.0957,0.0959,0.0987,0.0996,0.1011,0.1017,0.1066,0.107,0.107,0.1103,0.1158,0.1169,0.1179,0.1228,0.1242,0.1071,0.1071,0.1071,0,0.0893,0.0897,0.0898,0.0907,0.0917,0.0923,0.0936,0.0947,0.0961,0.0982,0.0971,0.1023,0.1021,0.1069,0.1084,0.1081,0.1112,0.107,0.1167,0.1177,0.1187,0.1235,0.1249,0.1074,0.1073,0.1073,0.1073,0,0.0902,0.0912,0.0918,0.093,0.0943,0.0956,0.097,0.0993,0.1006,0.1023,0.1075,0.1083,0.1116,0.1123,0.1114,0.1185,0.1187,0.1172,0.1146,0.1204,0.125,0.1265,0.1078,0.1077,0.1076,0.1075,0,0,0.0908,0.092,0.0925,0.0935,0.0957,0.0967,0.1,0.1036,0.107,0.1095,0.1143,0.1174,0.1191,0.12,0.1206,0.1246,0.1338,0.1238,0.124,0.1286,0.1468,0.1415,0.1425,0.1346,0.1349,0.1351,0.1478,0,0.0917,0.0932,0.094,0.0967,0.0978,0.1001,0.1032,0.107,0.1103,0.1153,0.1187,0.1229,0.1217,0.1239,0.1284,0.1323,0.1377,0.1305,0.1406,0.1409,0.1354,0.144,0.1193,0.1281,0.1492,0.1494,0.1496,0,0.0924,0.0934,0.0955,0.0987,0.0996,0.1017,0.1078,0.1107,0.1179,0.1209,0.1268,0.1291,0.1361,0.1333,0.1449,0.1408,0.1447,0.1472,0.1478,0.1417,0.1382,0.1256,0.13,0.152,0.1518,0.1517,0.1515,0,0.0924,0.0948,0.0965,0.0974,0.1011,0.1036,0.1064,0.1131,0.1165,0.1251,0.1288,0.1373,0.1415,0.1484,0.1534,0.1506,0.1656,0.1622,0.1617,0.1614,0.1416,0.139,0.1716,0.1715,0.1715,0.1715,0.1714,0,0.093,0.0946,0.0966,0.0977,0.1008,0.104,0.1089,0.1135,0.1204,0.1258,0.1318,0.1376,0.1456,0.1537,0.1579,0.1651,0.1703,0.1646,0.1652,0.1428,0.1403,0.1608,0.1594,0.172,0.1719,0.1718,0.1717,0,0.0929,0.094,0.096,0.0995,0.1006,0.1032,0.1083,0.1122,0.1194,0.1266,0.1293,0.1402,0.1519,0.1594,0.1713,0.1702,0.1773,0.1783,0.1513,0.1485,0.1684,0.1671,0.1799,0.1798,0.1798,0.1797,0.1797,0,0.093,0.0938,0.0965,0.0971,0.0986,0.1021,0.1046,0.1111,0.1153,0.128,0.1316,0.1445,0.1522,0.1676,0.1637,0.1699,0.1814,0.1563,0.1457,0.1704,0.1697,0.1685,0.1673,0.1224,0.1218,0.1214,0.1211,0,0.093,0.0939,0.0951,0.096,0.0977,0.0996,0.1038,0.1066,0.1155,0.122,0.1326,0.1395,0.1472,0.1418,0.1483,0.1486,0.1527,0.1483,0.1829,0.1237,0.117,0.1161,0.1166,0.1174,0.1178,0.1181,0.1183,0.1184,0.0928,0.0929,0.0937,0.0946,0.0956,0.0967,0.0982,0.103,0.1087,0.1163,0.1263,0.1289,0.1234,0.1188,0.1205,0.1205,0.1295,0.1261,0.127,0.1284,0.1191,0.1126,0.1105,0.1108,0.1111,0.1114,0.1116,0,0.0918,0.0918,0.0921,0.0923,0.0919,0.0938,0.0971,0.0978,0.1027,0.1058,0.1122,0.0942,0.0899,0.0941,0.0811,0.0818,0.0768,0.0876,0.0779,0.0811,0.0841,0.0724,0.0516,0.0516,0.0516,0.0516,0,0,0.091,0.0903,0.09,0.0881,0.0886,0.088,0.0894,0.0903,0.0902,0.0859,0.0812,0.082,0.0808,0.0612,0.0584,0.056,0.07,0.0541,0.0991,0.09,0.0931,0.1001,0.085,0,0,0,0,0]},{"header":{"parameterUnit":"m.s-1","parameterCategory":2,"la1":30.2991,"la2":30.254,"lo1":-89.0895,"lo2":-89.0444,"dy":0.0017,"dx":0.0017,"nx":28,"ny":28,"refTime":"2026-01-07T03:00:00:Z","depth":"2","parameterNumber":3,"parameterNumberName":"V-component_of_CURRENTS"},"data":[0,0,0,0,0,0,0,0,0,0,0,0,0,0,0,0,0,0,0,0,0,0,0,0,0,0,0,0,0,0,0,0,0,0,0,0,0,0,0,0,0,0,0,0,0,0,0,0,0,0,0,0,0,0,0,0,0,0,0.0167,0.0166,0,0.0128,0.0128,0.0127,0.0087,0.0086,0.0086,0.0085,-0.0007,-0.0009,-0.0011,0,0,0,0,0,0,0,0,0,0,0,0,0,0.0191,0.0191,0.0167,0.0166,0.0166,0.0128,0.0128,0.0127,0.0087,0.0086,0.0086,0.0085,-0.0006,-0.0008,-0.0011,0,0,0,0,0,0,0,0,0,0,0,0,0,0.0169,0.0191,0.0167,0.0141,0.0139,0.0128,0.0128,0.0127,0.0087,0.0086,0.0085,0.0085,-0.0005,-0.0008,-0.0011,-0.0013,0,0,-0.002,-0.0021,0,0,0,0,0,0,0,0,0.0171,0.0168,0.0146,0.0143,0.014,0.0112,0.0103,0.0078,0.0087,0.0106,0.0085,0.0084,0.0029,0.0023,0.0018,-0.0017,-0.0021,-0.002,-0.0022,-0.0023,-0.0024,0,0,0,0,0,0,0,0.0172,0.017,0.0151,0.0145,0.0142,0.0127,0.0123,0.0098,0.0071,0.0105,0.0102,0.0098,0.0027,0.0021,0.0015,-0.0022,-0.002,-0.0023,-0.0025,-0.0026,-0.0103,-0.0103,0,0,0,0,0,0,0.0179,0.0171,0.0152,0.015,0.0154,0.0127,0.0123,0.0121,0.0073,0.0065,0.0099,0.0096,0.0026,0.0019,0.0012,-0.0012,-0.0023,-0.0026,-0.0028,-0.0102,-0.0103,-0.0103,0,0,0,0,0,0,0.018,0.0178,0.0154,0.016,0.0156,0.0128,0.0126,0.0121,0.0105,0.0069,0.006,0.0087,0.0025,0.0016,-0.0016,-0.0016,-0.0027,-0.003,-0.0102,-0.0102,-0.0103,-0.0049,0,0,0,0,0,0,0.0181,0.0179,0.0176,0.0161,0.0156,0.0146,0.0127,0.0121,0.0105,0.0101,0.0056,0.0047,0.0024,-0.0012,-0.0019,-0.002,-0.0032,-0.0102,-0.0102,-0.0103,-0.005,-0.0048,-0.0045,0,0,0,0,0,0.0182,0.0185,0.0176,0.0173,0.0154,0.0147,0.0143,0.012,0.0105,0.0101,0.0069,0.0048,-0.0021,-0.0014,-0.0023,-0.0024,-0.0101,-0.0102,-0.0103,-0.0052,-0.0048,-0.0045,0,0,0,0,0,0,0.0191,0.0181,0.017,0.0168,0.0157,0.014,0.0133,0.0118,0.0092,0.0082,0.0047,0.0036,0.0008,-0.0018,-0.001,-0.005,-0.0066,-0.0068,-0.0024,-0.0021,-0.0019,0.0002,-0.0035,0,0,0,0,0,0.0194,0.0193,0.018,0.0177,0.0172,0.0151,0.0143,0.0129,0.0106,0.0093,0.0063,0.0027,0.0001,-0.0018,-0.0046,-0.0066,-0.008,-0.0076,-0.0073,-0.007,-0.0061,-0.0084,-0.0082,-0.0105,-0.0105,-0.0105,0,0,0.0197,0.019,0.0189,0.0179,0.0166,0.0166,0.0144,0.0132,0.0129,0.0087,0.0066,0.0035,-0.0004,-0.0025,-0.004,-0.0047,-0.007,-0.0071,-0.0068,-0.006,-0.0085,-0.0082,-0.008,-0.0106,-0.0106,-0.0105,0,0,0.0207,0.0196,0.02,0.0194,0.0179,0.017,0.0166,0.0146,0.0132,0.0112,0.0081,0.0055,0.0008,-0.001,-0.0027,-0.0028,-0.0055,-0.0047,-0.0016,-0.0039,-0.0036,-0.0035,-0.0038,-0.0037,-0.0045,-0.0045,-0.0045,0,0.0208,0.0214,0.02,0.0202,0.02,0.0174,0.0179,0.0166,0.0136,0.0134,0.0107,0.0055,0.0019,0.0007,0.0003,-0.002,-0.0034,-0.0021,-0.0033,-0.0032,-0.0031,-0.0035,-0.0034,-0.0043,-0.0043,-0.0043,-0.0043,0,0.0225,0.0227,0.0228,0.0225,0.0222,0.0221,0.0206,0.0196,0.0173,0.0164,0.0141,0.0096,0.0067,0.0049,0.0023,0.0013,0.0001,-0.0025,-0.0034,-0.0025,-0.003,-0.003,-0.0039,-0.004,-0.0041,-0.0041,0,0,0.0233,0.024,0.0239,0.0248,0.0235,0.0238,0.0234,0.0233,0.0244,0.0202,0.0211,0.0157,0.0135,0.0114,0.0077,0.0057,0.0049,0.002,0.0017,0.0029,0.0011,0.0016,0.0016,0.0017,0.0017,0.0017,0.0009,0,0.0249,0.0267,0.0265,0.0282,0.0292,0.0276,0.0282,0.0277,0.0267,0.0268,0.0225,0.021,0.0159,0.0143,0.0115,0.0068,0.0048,0.0054,-0.0011,-0.0013,0.0001,0.0016,-0.0015,-0.0023,0.0009,0.0009,0.0009,0,0.0266,0.0278,0.0299,0.0322,0.0325,0.033,0.0346,0.035,0.0348,0.0339,0.0319,0.0284,0.0252,0.0198,0.0132,0.0136,0.0077,0.0037,0.0035,0.0023,-0.0008,-0.0032,-0.0026,0.0007,0.0008,0.0008,0.0008,0,0.0285,0.0304,0.0325,0.0329,0.0346,0.0354,0.0362,0.037,0.0388,0.0383,0.0393,0.0349,0.0325,0.0249,0.0161,0.0141,0.0093,0.0053,0.0007,0.0007,-0.0039,-0.0043,0.0,0.0,0.0,0.0,0.0,0,0.0307,0.0324,0.0335,0.0347,0.0378,0.038,0.0416,0.0421,0.044,0.0474,0.0427,0.0442,0.0331,0.0287,0.0196,0.0115,0.0116,0.0024,0.0005,-0.0021,-0.0023,-0.0018,-0.002,-0.0,-0.0,-0.0,0.0,0,0.0326,0.0331,0.0358,0.0379,0.0387,0.0409,0.0445,0.0481,0.0489,0.053,0.0527,0.051,0.0462,0.0362,0.0256,0.0169,0.0085,0.0048,0.0039,0.002,0.0005,0.0006,0.0001,0.0001,0.0002,0.0002,0.0002,0,0.0339,0.0353,0.038,0.0399,0.0407,0.0439,0.0471,0.0496,0.0542,0.0579,0.0609,0.0577,0.0582,0.0452,0.0278,0.0139,0.0115,0.002,-0.003,0.0023,0.0005,0.0006,0.0006,-0.007,-0.007,-0.007,-0.0071,0,0.0365,0.0368,0.0392,0.0427,0.0458,0.0506,0.0553,0.0599,0.064,0.0686,0.0747,0.0755,0.0623,0.0467,0.027,0.0174,0.0041,0.0008,0.0059,-0.0059,-0.0043,-0.006,-0.0058,-0.0075,-0.0074,-0.0074,-0.0074,-0.0074,0.0379,0.0398,0.0423,0.0457,0.0496,0.0563,0.0613,0.0687,0.077,0.0845,0.0854,0.082,0.0596,0.0318,0.0187,0.0032,0.0036,-0.0055,-0.0055,-0.0054,-0.0054,-0.0038,-0.0068,-0.0068,-0.0067,-0.0067,-0.0067,0,0.0392,0.0413,0.0454,0.0498,0.0546,0.0557,0.0662,0.0733,0.0841,0.0865,0.0924,0.0664,0.0504,0.0287,0.0036,-0.0087,-0.0098,-0.0111,-0.013,-0.0126,-0.0123,-0.0128,-0.0161,-0.0161,-0.0162,-0.0162,0,0,0.0399,0.0433,0.0456,0.0524,0.0552,0.0622,0.068,0.0806,0.0841,0.0871,0.0789,0.073,0.0432,0.0206,0.0048,-0.0057,-0.005,-0.0061,0.002,0.0019,0.0025,-0.0092,-0.0095,0,0,0,0,0]}],[{"header":{"parameterUnit":"m.s-1","parameterCategory":2,"la1":30.2991,"la2":30.254,"lo1":-89.0895,"lo2":-89.0444,"dy":0.0017,"dx":0.0017,"nx":28,"ny":28,"refTime":"2026-01-07T03:00:00:Z","depth":"4","parameterNumber":2,"parameterNumberName":"U-component_of_CURRENTS"},"data":[0,0,0,0,0,0,0,0,0,0,0,0,0,0,0,0,0,0,0,0,0,0,0,0,0,0,0,0,0,0,0,0,0,0,0,0,0,0,0,0,0,0,0,0,0,0,0,0,0,0,0,0,0,0,0,0,0,0,0.0194,0.0194,0,0.0211,0.0211,0.0211,0.0257,0.0258,0.0259,0.026,0.0297,0.0297,0.0297,0,0,0,0,0,0,0,0,0,0,0,0,0,0.0168,0.0169,0.0194,0.0194,0.0194,0.0211,0.0211,0.0212,0.0257,0.0258,0.0259,0.026,0.0297,0.0297,0.0297,0,0,0,0,0,0,0,0,0,0,0,0,0,0.0182,0.0169,0.0194,0.0219,0.0221,0.0211,0.0211,0.0212,0.0257,0.0258,0.026,0.0261,0.0297,0.0297,0.0297,0.0269,0,0,0.0297,0.0297,0,0,0,0,0,0,0,0,0.0181,0.0183,0.0215,0.0217,0.0219,0.0233,0.0216,0.0232,0.0256,0.0243,0.026,0.0262,0.0276,0.0278,0.0278,0.0271,0.0272,0.0297,0.0297,0.0297,0.0297,0,0,0,0,0,0,0,0.018,0.0182,0.0201,0.0215,0.0218,0.0218,0.0222,0.0219,0.0252,0.0245,0.0248,0.0249,0.0278,0.0278,0.0279,0.0273,0.0297,0.0297,0.0297,0.0297,0.0301,0.0301,0,0,0,0,0,0,0.0178,0.0181,0.02,0.0201,0.0203,0.0218,0.0222,0.0227,0.0252,0.0256,0.0248,0.0251,0.0277,0.0279,0.0281,0.0312,0.0297,0.0297,0.0298,0.0301,0.0301,0.0301,0,0,0,0,0,0,0.0177,0.0179,0.0199,0.0191,0.0194,0.0217,0.0222,0.0227,0.0257,0.0254,0.0259,0.0277,0.0278,0.0281,0.0304,0.0311,0.0298,0.0298,0.0301,0.0301,0.0301,0.0334,0,0,0,0,0,0,0.0177,0.0179,0.0191,0.0191,0.0194,0.0209,0.0221,0.0226,0.0254,0.0259,0.028,0.0283,0.0279,0.0304,0.0304,0.0311,0.0298,0.0301,0.0301,0.0301,0.0333,0.0335,0.0337,0,0,0,0,0,0.0176,0.0185,0.0192,0.0195,0.0208,0.0209,0.0211,0.0232,0.0254,0.0265,0.0285,0.0284,0.0304,0.0304,0.0304,0.0312,0.0301,0.0301,0.0301,0.0332,0.0335,0.0337,0,0,0,0,0,0,0.0183,0.019,0.0198,0.0211,0.0217,0.0217,0.0236,0.0246,0.0269,0.0288,0.029,0.0293,0.0313,0.0306,0.0307,0.0311,0.0299,0.03,0.0323,0.0325,0.0327,0.0342,0.0298,0,0,0,0,0,0.0187,0.0196,0.0201,0.0211,0.0224,0.0235,0.0244,0.0256,0.027,0.0284,0.0302,0.0312,0.0306,0.0315,0.0313,0.032,0.0313,0.0321,0.0324,0.0326,0.0337,0.0325,0.0327,0.0301,0.0301,0.0301,0,0,0.019,0.0196,0.0201,0.0213,0.0228,0.0241,0.0246,0.0269,0.0288,0.0282,0.0332,0.0325,0.031,0.0318,0.0325,0.0319,0.0329,0.0326,0.0327,0.0338,0.0325,0.0328,0.033,0.0301,0.0301,0.0301,0,0,0.0199,0.0214,0.023,0.0234,0.0255,0.0262,0.0275,0.0298,0.0325,0.035,0.0348,0.0352,0.0361,0.0347,0.0337,0.0348,0.0341,0.0347,0.0372,0.0361,0.0363,0.0365,0.0362,0.0364,0.0348,0.0348,0.0348,0,0.0205,0.0223,0.0233,0.0246,0.0261,0.0277,0.0301,0.0316,0.0344,0.0365,0.0376,0.038,0.0371,0.036,0.0364,0.0354,0.0353,0.0365,0.0364,0.0366,0.0368,0.0365,0.0366,0.0349,0.0349,0.0349,0.0349,0,0.0217,0.0239,0.0252,0.0276,0.0292,0.0312,0.0336,0.0367,0.0401,0.0411,0.0435,0.0419,0.042,0.0406,0.0392,0.039,0.0388,0.0369,0.0361,0.0372,0.0368,0.0369,0.0352,0.0351,0.035,0.035,0,0,0.0213,0.0254,0.0261,0.0284,0.0314,0.0327,0.0369,0.0404,0.0436,0.0456,0.0488,0.0468,0.0468,0.0456,0.0432,0.0419,0.0423,0.0407,0.0405,0.0411,0.0411,0.0374,0.0371,0.0409,0.0409,0.0409,0.0405,0,0.0227,0.0259,0.028,0.0321,0.0348,0.0376,0.041,0.044,0.0472,0.0506,0.0492,0.0509,0.0483,0.0487,0.0469,0.0433,0.0427,0.0427,0.0394,0.0394,0.0364,0.0371,0.041,0.0406,0.0406,0.0406,0.0406,0,0.0235,0.0259,0.0305,0.0358,0.0377,0.0409,0.0473,0.0501,0.0536,0.056,0.0569,0.0565,0.0551,0.0529,0.0486,0.0491,0.0464,0.0434,0.0432,0.0389,0.0358,0.039,0.0407,0.0407,0.0407,0.0407,0.0407,0,0.0222,0.0278,0.0322,0.0333,0.0392,0.044,0.0482,0.0529,0.0559,0.0603,0.0622,0.0609,0.0608,0.0569,0.0503,0.0508,0.0449,0.0443,0.0386,0.0384,0.0405,0.0403,0.0425,0.0425,0.0425,0.0425,0.0425,0,0.0217,0.0254,0.033,0.0344,0.0415,0.0458,0.0527,0.0565,0.0611,0.0625,0.0655,0.0632,0.0621,0.0578,0.0522,0.0447,0.0463,0.0398,0.038,0.0418,0.0418,0.0406,0.0403,0.0425,0.0425,0.0425,0.0425,0,0.0199,0.024,0.0292,0.0374,0.041,0.0465,0.0555,0.0586,0.0641,0.0661,0.0677,0.0667,0.0603,0.0569,0.0497,0.0471,0.0399,0.0369,0.0418,0.04,0.0348,0.0347,0.0335,0.0333,0.0332,0.0331,0.0331,0,0.019,0.0215,0.0306,0.0347,0.04,0.0483,0.0529,0.0598,0.0609,0.0638,0.0619,0.0606,0.0579,0.0454,0.0417,0.0348,0.0328,0.034,0.0351,0.0355,0.0338,0.034,0.0341,0.0329,0.0328,0.0328,0.0328,0,0.0173,0.0213,0.0252,0.0331,0.0401,0.0458,0.0521,0.0516,0.0563,0.0624,0.0559,0.0535,0.0466,0.0396,0.0365,0.0296,0.0363,0.0329,0.0331,0.0342,0.0348,0.0332,0.0335,0.0324,0.0324,0.0325,0.0325,0,0.0164,0.0187,0.0237,0.0307,0.0387,0.0413,0.0445,0.0451,0.047,0.0502,0.0453,0.0423,0.0428,0.0363,0.0291,0.0268,0.027,0.0296,0.03,0.0305,0.0294,0.0298,0.0247,0,0,0,0,0,0.0156,0.0168,0.0212,0.0275,0.0348,0.0393,0.0428,0.0441,0.0469,0.042,0.0447,0.037,0.0321,0.0277,0.0241,0.026,0.026,0.0222,0.029,0.0302,0.0306,0.0295,0,0,0,0,0,0,0.0147,0.0183,0.0188,0.0236,0.0276,0.034,0.0357,0.0368,0.0326,0.0359,0.03,0.0381,0.029,0.0333,0.0242,0.0239,0.0284,0.0219,0.0219,0.0299,0.0303,0.0307,0.0297,0,0,0,0,0]},{"header":{"parameterUnit":"m.s-1","parameterCategory":2,"la1":30.2991,"la2":30.254,"lo1":-89.0895,"lo2":-89.0444,"dy":0.0017,"dx":0.0017,"nx":28,"ny":28,"refTime":"2026-01-07T03:00:00:Z","depth":"4","parameterNumber":3,"parameterNumberName":"V-component_of_CURRENTS"},"data":[0,0,0,0,0,0,0,0,0,0,0,0,0,0,0,0,0,0,0,0,0,0,0,0,0,0,0,0,0,0,0,0,0,0,0,0,0,0,0,0,0,0,0,0,0,0,0,0,0,0,0,0,0,0,0,0,0,0,0.0249,0.0249,0,0.0258,0.0258,0.0258,0.0279,0.028,0.028,0.0281,0.0289,0.0288,0.0288,0,0,0,0,0,0,0,0,0,0,0,0,0,0.0242,0.0242,0.0249,0.0249,0.0249,0.0258,0.0258,0.0258,0.0279,0.028,0.028,0.0281,0.0289,0.0288,0.0288,0,0,0,0,0,0,0,0,0,0,0,0,0,0.0248,0.0242,0.0249,0.026,0.0262,0.0258,0.0258,0.0258,0.0279,0.028,0.028,0.0281,0.0289,0.0288,0.0288,0.0274,0,0,0.0287,0.0287,0,0,0,0,0,0,0,0,0.0247,0.0248,0.0259,0.026,0.0261,0.0268,0.0258,0.0263,0.0279,0.0273,0.0281,0.0281,0.0281,0.0281,0.0282,0.0274,0.0274,0.0287,0.0287,0.0287,0.0287,0,0,0,0,0,0,0,0.0247,0.0248,0.0253,0.0259,0.026,0.0262,0.0264,0.0259,0.0273,0.0273,0.0275,0.0275,0.0282,0.0282,0.0282,0.0275,0.0287,0.0287,0.0287,0.0287,0.0236,0.0235,0,0,0,0,0,0,0.0245,0.0247,0.0252,0.0253,0.0255,0.0262,0.0264,0.0265,0.0273,0.0275,0.0275,0.0276,0.0282,0.0283,0.0283,0.0256,0.0287,0.0287,0.0287,0.0237,0.0236,0.0234,0,0,0,0,0,0,0.0245,0.0245,0.0252,0.025,0.0251,0.0261,0.0263,0.0265,0.0271,0.0274,0.0276,0.0279,0.0283,0.0283,0.0279,0.0257,0.0287,0.0286,0.0239,0.0237,0.0235,0.0208,0,0,0,0,0,0,0.0245,0.0245,0.025,0.025,0.0251,0.0251,0.0262,0.0265,0.027,0.0272,0.0279,0.028,0.0283,0.028,0.0279,0.0257,0.0286,0.024,0.0238,0.0236,0.0211,0.0206,0.0202,0,0,0,0,0,0.0244,0.0248,0.025,0.0251,0.0256,0.025,0.0251,0.0261,0.0269,0.0269,0.0273,0.028,0.0264,0.0279,0.0278,0.0255,0.0241,0.0238,0.0236,0.0213,0.0207,0.0202,0,0,0,0,0,0,0.0249,0.0251,0.0253,0.0258,0.0254,0.0254,0.026,0.0261,0.0264,0.0269,0.0273,0.0274,0.0258,0.026,0.0276,0.0232,0.025,0.0247,0.0233,0.0227,0.0223,0.0221,0.0286,0,0,0,0,0,0.0251,0.0252,0.0252,0.0253,0.0256,0.0257,0.0258,0.026,0.026,0.0263,0.0261,0.0256,0.0244,0.0241,0.0233,0.0216,0.0214,0.0196,0.0192,0.0188,0.0184,0.0162,0.0156,0.0226,0.0226,0.0226,0,0,0.0252,0.0252,0.0254,0.0253,0.0256,0.0253,0.026,0.026,0.0251,0.0262,0.0251,0.0243,0.0237,0.0215,0.0207,0.0216,0.0167,0.0185,0.0182,0.018,0.0159,0.0152,0.0146,0.0224,0.0224,0.0224,0,0,0.025,0.0257,0.0259,0.0255,0.0254,0.0253,0.0253,0.0248,0.0245,0.0228,0.0229,0.021,0.0196,0.0181,0.0174,0.0139,0.0145,0.0132,0.0108,0.0086,0.008,0.0075,0.0066,0.006,0.0129,0.0129,0.0129,0,0.025,0.0252,0.0257,0.0254,0.0251,0.0253,0.0249,0.0241,0.023,0.0218,0.0221,0.018,0.0176,0.0144,0.0128,0.0128,0.0123,0.0132,0.0081,0.0076,0.0071,0.0063,0.0057,0.0127,0.0127,0.0127,0.0127,0,0.0245,0.0248,0.0249,0.0246,0.0242,0.0239,0.0229,0.0218,0.0209,0.0192,0.0157,0.0142,0.0118,0.0104,0.0106,0.0064,0.0074,0.008,0.0098,0.0063,0.0056,0.005,0.0125,0.0125,0.0126,0.0126,0,0,0.0241,0.0246,0.0247,0.0246,0.0238,0.0233,0.0216,0.0196,0.0181,0.0152,0.0122,0.0085,0.0073,0.0063,0.0054,0.003,-0.0008,0.0039,0.0038,0.0035,-0.005,-0.0037,-0.0042,-0.0009,-0.001,-0.0011,-0.004,0,0.0236,0.0236,0.0235,0.0227,0.023,0.0219,0.0202,0.0179,0.0157,0.0126,0.0093,0.0066,0.0059,0.0046,0.0016,-0.0,-0.0025,-0.0001,-0.002,-0.0021,-0.0001,-0.0049,-0.0015,-0.0044,-0.0046,-0.0047,-0.0047,0,0.0231,0.0234,0.0234,0.0223,0.0223,0.0214,0.019,0.0171,0.0129,0.0109,0.0069,0.0048,0.0002,0.0006,-0.005,-0.0033,-0.0047,-0.0059,-0.006,-0.0044,-0.002,-0.0003,-0.0057,-0.0057,-0.0056,-0.0055,-0.0054,0,0.0229,0.0229,0.0232,0.0228,0.0218,0.0211,0.0201,0.0166,0.0153,0.0102,0.0087,0.0026,0.0005,-0.0035,-0.0066,-0.0059,-0.0119,-0.0109,-0.0112,-0.0111,-0.0098,-0.0092,-0.015,-0.015,-0.015,-0.015,-0.015,0,0.022,0.0224,0.0236,0.0234,0.0233,0.0218,0.0205,0.0182,0.0152,0.0131,0.0084,0.0051,-0.0006,-0.0046,-0.0076,-0.0114,-0.0128,-0.0128,-0.0125,-0.0108,-0.0104,-0.0101,-0.0095,-0.0151,-0.0151,-0.0151,-0.0151,0,0.0217,0.0225,0.0232,0.0232,0.0234,0.0233,0.0227,0.0215,0.0187,0.016,0.0147,0.0072,0.0011,-0.0035,-0.01,-0.0117,-0.0157,-0.0162,-0.0139,-0.0132,-0.013,-0.0125,-0.0177,-0.0177,-0.0177,-0.0177,-0.0177,0,0.021,0.0219,0.0237,0.0247,0.0252,0.0255,0.0256,0.0236,0.0223,0.0167,0.0151,0.0086,0.0036,-0.0055,-0.0106,-0.016,-0.016,-0.0174,-0.0163,-0.0145,-0.0137,-0.0132,-0.0127,-0.0177,-0.0177,-0.0177,-0.0177,0,0.0203,0.0221,0.0228,0.0255,0.0268,0.0277,0.0274,0.0262,0.023,0.0224,0.0145,0.0084,0.0015,-0.0066,-0.01,-0.0141,-0.0167,-0.0174,-0.0174,-0.0164,-0.0146,-0.0137,-0.0132,-0.0177,-0.0177,-0.0177,-0.0177,0,0.0204,0.0214,0.0234,0.0248,0.028,0.028,0.0272,0.0249,0.0233,0.0179,0.0148,0.0065,0.0019,-0.0056,-0.0098,-0.0129,-0.0135,-0.0137,-0.014,-0.014,-0.0118,-0.0088,-0.0113,0,0,0,0,0,0.0204,0.0211,0.0223,0.0238,0.0273,0.029,0.028,0.0266,0.0242,0.0195,0.0172,0.0105,0.0017,-0.0042,-0.0072,-0.0092,-0.0135,-0.0126,-0.0137,-0.0177,-0.0177,-0.0157,0,0,0,0,0,0,0.0204,0.0225,0.0216,0.0233,0.025,0.0279,0.0274,0.0249,0.0213,0.0183,0.0127,0.012,0.0025,0.0046,-0.0063,-0.0076,-0.0084,-0.0162,-0.0162,-0.0177,-0.0177,-0.0177,-0.0156,0,0,0,0,0]}]]